Lid_Strength_Index
4 4 4 5 5 7 10 12 12 7 9 13 14 15 12 9 9 7 8 9 10 11 11 12 12 11 10 7 9 11 11 12 14 13 10 10 11 13 14 15 16 15 17 16
4 4 5 5 5 8 12 12 11 7 8 14 15 12 9 8 8 9 9 10 9 10 12 14 11 10 7 7 8 11 11 14 16 14 13 11 11 10 11 13 15 16 16 15
4 4 5 5 5 7 11 12 12 10 10 12 13 12 11 10 7 8 9 10 10 11 12 11 12 10 7 7 7 6 8 13 14 16 15 12 12 10 10 13 16 15 14 14
4 4 4 4 5 7 12 12 12 11 13 12 12 12 11 11 10 9 9 10 10 12 14 12 12 10 9 8 7 9 11 14 13 12 11 11 11 11 11 13 12 14 12 12
4 4 4 4 5 7 12 13 12 12 11 11 12 12 13 10 9 10 10 11 9 10 12 12 11 11 11 11 10 11 11 13 12 13 10 11 12 11 11 11 11 11 12 12
3 3 3 4 5 8 14 13 11 11 12 12 12 12 11 9 9 9 8 9 10 10 9 9 9 9 9 10 11 11 12 12 14 15 12 12 15 12 12 11 10 11 14 11
3 3 3 4 5 8 12 11 11 12 13 12 12 10 9 9 9 10 8 8 10 8 7 8 10 10 10 10 10 11 12 13 14 16 15 19 13 10 9 10 10 10 9 9
3 3 3 4 4 7 11 12 11 12 13 12 10 10 10 10 10 10 9 7 7 8 9 11 13 13 12 12 11 12 12 13 16 17 18 15 12 10 10 11 11 9 9 8
2 3 3 3 4 6 10 12 11 12 12 12 10 11 11 12 12 10 9 8 8 9 11 13 16 16 14 14 13 11 12 13 15 17 18 18 13 10 7 8 14 8 8 9
2 2 3 3 4 5 10 11 11 11 12 11 11 12 12 11 12 12 11 10 10 11 14 15 15 15 13 16 16 15 15 15 16 17 17 15 11 9 7 14 13 8 8 9
2 2 3 3 3 5 9 11 10 10 12 12 10 9 11 11 12 12 11 11 11 12 14 14 15 16 15 16 15 15 15 16 17 16 17 17 10 9 11 10 9 8 8 8
2 2 3 3 3 4 7 10 8 9 11 11 9 9 9 9 9 11 12 12 12 12 13 14 15 15 15 16 17 13 16 14 15 14 14 11 10 10 9 9 10 8 8 7
3 2 2 3 3 4 7 9 10 11 12 12 11 11 9 8 8 8 11 12 10 11 11 13 14 15 14 16 15 14 13 13 14 14 13 12 11 9 9 9 9 8 7 7
4 3 2 3 3 4 6 10 9 11 11 13 12 8 10 8 8 8 9 10 12 12 12 14 14 15 13 15 14 15 13 13 14 15 13 12 11 10 9 8 8 8 8 7
4 3 2 3 3 5 8 9 9 9 9 13 12 11 10 10 9 10 11 12 13 14 14 14 15 14 14 15 15 16 13 13 15 15 12 13 12 9 8 8 8 8 8 7
4 3 2 3 4 5 10 11 9 9 9 11 13 12 11 11 10 11 12 13 14 15 15 16 15 14 15 17 18 14 13 13 13 13 12 11 9 9 8 8 7 7 7 6
4 4 3 3 5 9 11 12 10 8 10 12 14 14 12 11 12 13 13 13 14 14 16 16 16 16 15 17 18 14 13 12 11 11 10 10 9 9 7 7 6 6 6 6
4 5 5 5 5 7 10 9 7 8 11 12 15 15 13 11 14 15 14 15 15 15 15 15 16 15 16 17 14 13 11 11 10 9 9 9 8 7 6 6 6 6 6 5
5 6 6 6 8 10 10 5 6 8 10 14 15 15 16 13 15 15 15 15 16 15 16 16 15 17 17 14 13 12 9 10 10 8 7 6 6 5 5 4 5 5 5 4
6 7 10 13 10 5 5 8 10 10 10 12 15 14 15 13 15 16 15 16 17 18 16 15 17 17 14 11 10 8 7 7 6 8 7 6 6 5 5 5 4 4 4 4
9 12 12 8 6 8 10 14 14 14 15 15 15 14 14 12 15 16 15 18 17 18 16 16 17 17 13 9 8 7 6 6 6 5 5 5 5 5 5 5 5 5 5 5
9 9 8 9 10 12 14 16 15 16 17 15 15 15 13 13 13 14 15 16 16 18 15 16 17 14 10 9 8 7 6 6 6 5 5 4 4 4 4 5 5 4 4 4
8 10 12 13 14 17 18 19 17 17 15 14 15 15 14 14 14 15 15 16 17 14 16 16 15 12 10 9 7 6 6 5 5 5 4 3 4 4 4 5 5 6 7 6
12 14 17 16 16 16 17 16 16 14 14 14 14 16 15 16 16 16 16 15 15 17 18 16 14 11 10 8 7 7 6 5 5 5 4 4 5 5 5 6 7 7 7 7
13 13 17 16 15 15 14 14 14 14 12 13 14 15 14 16 15 16 16 17 17 17 16 14 12 10 9 8 7 6 6 5 5 4 4 4 5 6 7 7 7 7 7 7
12 13 15 15 16 16 15 14 13 13 13 13 13 16 16 16 16 16 16 17 17 15 13 12 11 9 9 8 7 6 5 5 4 4 4 5 6 7 8 8 8 7 7 6
13 14 13 13 14 14 13 12 12 12 13 16 16 16 17 15 16 16 15 15 14 13 12 10 10 9 9 8 7 5 5 5 4 4 4 6 6 7 8 9 8 7 7 6